Regional Weather Roundup
Issued by NWS

Home | Current Version | Previous Version | Text Only | Print | Product List | Glossary On
Versions: 1 2 3 4 5 6 7 8 9 10 11 12 13 14 15 16 17 18 19 20 21 22 23 24 25 26 27 28 29 30 31 32 33 34 35 36 37 38 39 40 41 42 43 44 45 46 47 48 49 50
000
ASCA44 KEWX 280520
RWRMX

LATIN AMERICA AND CARIBBEAN REGIONAL WEATHER ROUNDUP
NATIONAL WEATHER SERVICE AUSTIN/SAN ANTONIO TX
1200 AM CDT THU MAY 28 2015

NOTE: "FAIR" INDICATED FEW OR NO CLOUDS BELOW 12,000 FEET WITH NO
SIGNIFICANT WEATHER AND/OR OBSTRUCTIONS TO VISIBILITY.

BAJA CALIFORNIA

CITY           SKY/WX    TMP DP  RH WIND       PRES   REMARKS
LA PAZ         CLEAR     72  54  53 S9        29.93S
MEXICALI       CLEAR     77  43  29 SE6       29.82R
S.J. DEL CABO  CLEAR     77  68  73 CALM      29.91R
TIJUANA        CLOUDY    61  52  72 NW8       30.02R

NORTHWESTERN MEXICO

CITY           SKY/WX    TMP DP  RH WIND       PRES   REMARKS
CULIACAN       CLEAR     79  68  69 SE7       29.91R
HERMOSILLO     CLEAR     79  46  31 CALM      29.91R
CD. JUAREZ       N/A    N/A N/A N/A MISG        N/A
LOS MOCHIS       N/A    N/A N/A N/A MISG        N/A

NORTHEASTERN MEXICO

CITY           SKY/WX    TMP DP  RH WIND       PRES   REMARKS
CHIHUAHUA      CLEAR     75  23  14 S5        30.02R
MATAMOROS      MOCLDY    81  79  94 E9        30.01R
MONTERREY      CLOUDY    77  70  78 E12       30.00R
TORREON        CLEAR     82  61  47 E12       29.98R

WESTERN MEXICO

CITY           SKY/WX    TMP DP  RH WIND       PRES   REMARKS
AGUASCALIENTES PTCLDY    70  45  40 SE12      30.23R
DEL BAJIO      PTCLDY    72  55  56 E12       30.31R
GUADALAJARA    PTCLDY    70  57  64 SW8       30.19R
MAZATLAN       PTCLDY    73  66  78 NW7       29.88R
P. VALLARTA    CLEAR     79  72  78 CALM      29.91R
ZACATECAS      CLEAR     70  43  37 S10       30.28R

CENTRAL MEXICO

CITY           SKY/WX    TMP DP  RH WIND       PRES   REMARKS
MEXICO CITY    CLOUDY    61  52  72 SE7       30.39S
PUEBLA         MOCLDY    54  52  94 N5        30.39R
QUERETARO      CLOUDY    61  59  94 S10       30.36R
S. LUIS POTOSI PTCLDY    64  57  77 S14       30.28R
TAMPICO          N/A    N/A N/A N/A MISG        N/A
TOLUCA         MOCLDY    54  46  76 S5        30.47R

SOUTHERN MEXICO

CITY           SKY/WX    TMP DP  RH WIND       PRES   REMARKS
ACAPULCO       CLOUDY    84  75  74 N8        29.93R HX  92
VERACRUZ         N/A    N/A N/A N/A MISG        N/A

YUCATAN PENINSULA

CITY           SKY/WX    TMP DP  RH WIND       PRES   REMARKS
CANCUN         MOCLDY    81  73  78 NE6       30.02S
COZUMEL        PTCLDY    73  72  94 CALM      30.02S
MERIDA         PTCLDY    82  68  61 E18       29.99S
TAPACHULA      MOCLDY    81  77  89 CALM      29.93S

CENTRAL AMERICA

CITY           SKY/WX    TMP DP  RH WIND       PRES   REMARKS
MANAGUA        PTCLDY    82  70  65 E9        29.89S

CARIBBEAN

CITY           SKY/WX    TMP DP  RH WIND       PRES   REMARKS
ARUBA          PTCLDY    81  73  78 E16       29.86S
CURACAO        PTCLDY    81  72  74 E13       29.89F
KINGSTON       PTCLDY    79  73  83 N9        29.92F
SAN JUAN       PTCLDY    79  72  78 SE3       29.96F
SANTO DOMINGO  PTCLDY    73  72  94 VRB3      29.94S
ST. CROIX      CLEAR     73  70  88 N6        29.96
ST. MAARTEN    PTCLDY    81  72  74 E6        29.94F
ST. THOMAS     CLEAR     77  72  83 E5        29.95

$$




USA.gov is the U.S. government's official web portal to all federal, state and local government web resources and services.